VE7SCC Weather Reports


Display with metric or nautical units.
time (UTC)temp
F
wind
direction
speed
MPH
gust
MPH
rain 1hr
in
rain 24hr
in
rain mn
in
humidity
%
barometer
mb
20260906225038 74 178 4.0 8.0 0.00 0.00 0.00 53 1013.9
20260906224018 74 177 5.0 11.0 0.00 0.00 0.00 53 1014.0
20260906223017 74 170 5.0 9.0 0.00 0.00 0.00 53 1014.1
20260906222015 75 213 4.0 9.0 0.00 0.00 0.00 51 1014.1
20260906221015 75 208 2.0 7.0 0.00 0.00 0.00 50 1014.1
20260906220016 74 207 4.0 9.0 0.00 0.00 0.00 48 1014.2
20260906215016 74 185 3.0 7.0 0.00 0.00 0.00 50 1014.3
20260906214016 73 185 4.0 7.0 0.00 0.00 0.00 52 1014.4
20260906213017 72 198 5.0 10.0 0.00 0.00 0.00 54 1014.5
20260906212016 72 176 6.0 11.0 0.00 0.00 0.00 55 1014.5
20260906211016 72 184 4.0 9.0 0.00 0.00 0.00 55 1014.6
20260906210016 72 182 5.0 9.0 0.00 0.00 0.00 55 1014.6
20260906205037 71 185 6.0 10.0 0.00 0.00 0.00 56 1014.8
20260906204017 71 166 5.0 9.0 0.00 0.00 0.00 56 1014.9
20260906203037 71 185 5.0 9.0 0.00 0.00 0.00 56 1015.0
20260906202017 70 184 5.0 11.0 0.00 0.00 0.00 57 1015.0
20260906201038 70 177 6.0 12.0 0.00 0.00 0.00 56 1015.1
20260906200018 70 190 5.0 9.0 0.00 0.00 0.00 57 1015.2
20260906195018 70 176 5.0 10.0 0.00 0.00 0.00 57 1015.4
20260906194018 70 185 4.0 9.0 0.00 0.00 0.00 58 1015.5
20260906193018 70 170 4.0 11.0 0.00 0.00 0.00 56 1015.6
20260906192038 69 171 2.0 10.0 0.00 0.00 0.00 58 1015.7
20260906191015 69 183 5.0 8.0 0.00 0.00 0.00 59 1015.9
20260906190016 69 119 2.0 6.0 0.00 0.00 0.00 57 1016.0
20260906185016 68 182 5.0 9.0 0.00 0.00 0.00 58 1016.2
20260906184037 67 192 4.0 8.0 0.00 0.00 0.00 60 1016.2
20260906183016 67 186 4.0 9.0 0.00 0.00 0.00 61 1016.3
20260906182017 67 187 4.0 8.0 0.00 0.00 0.00 62 1016.4
20260906181017 66 190 4.0 8.0 0.00 0.00 0.00 64 1016.4
20260906180017 66 166 3.0 7.0 0.00 0.00 0.00 66 1016.5
20260906175017 66 163 2.0 7.0 0.00 0.00 0.00 65 1016.6
20260906174017 64 122 2.0 6.0 0.00 0.00 0.00 69 1016.6
20260906173017 64 195 4.0 8.0 0.00 0.00 0.00 69 1016.7
20260906172017 63 176 2.0 5.0 0.00 0.00 0.00 71 1016.9
20260906171017 63 148 2.0 5.0 0.00 0.00 0.00 70 1016.9
20260906170018 63 179 3.0 7.0 0.00 0.00 0.00 70 1017.0
20260906165015 63 197 3.0 6.0 0.00 0.00 0.00 72 1017.1
20260906164058 63 117 0.0 3.0 0.00 0.00 0.00 72 1017.2
20260906163018 62 114 0.0 2.0 0.00 0.00 0.00 74 1017.3
20260906162015 62 182 0.0 2.0 0.00 0.00 0.00 74 1017.3
20260906161036 61 152 1.0 4.0 0.00 0.00 0.00 76 1017.3
20260906160036 60 130 1.0 4.0 0.00 0.00 0.00 77 1017.4
20260906155016 59 308 1.0 2.0 0.00 0.00 0.00 80 1017.4
20260906154016 59 146 1.0 3.0 0.00 0.00 0.00 79 1017.4
20260906153016 59 302 0.0 2.0 0.00 0.00 0.00 80 1017.5
20260906152017 59 0.0 0.0 0.00 0.00 0.00 80 1017.4
20260906151037 57 0.0 0.0 0.00 0.00 0.00 82 1017.4
20260906150017 56 297 0.0 2.0 0.00 0.00 0.00 88 1017.4
20260906145027 54 0.0 0.0 0.00 0.00 0.00 92 1017.4
20260906144028 53 0.0 0.0 0.00 0.00 0.00 93 1017.3
20260906143028 53 0.0 0.0 0.00 0.00 0.00 94 1017.3
20260906142028 52 0.0 0.0 0.00 0.00 0.00 94 1017.2
20260906141029 52 0.0 0.0 0.00 0.00 0.00 94 1017.2
20260906140028 52 0.0 0.0 0.00 0.00 0.00 93 1017.1
20260906135029 52 0.0 0.0 0.00 0.00 0.00 93 1017.1
20260906134029 53 0.0 0.0 0.00 0.00 0.00 93 1017.0
20260906133015 53 0.0 0.0 0.00 0.00 0.00 92 1017.0
20260906132016 54 0.0 0.0 0.00 0.00 0.00 92 1017.0
20260906131015 54 0.0 0.0 0.00 0.00 0.00 92 1017.0
20260906130016 54 0.0 0.0 0.00 0.00 0.00 92 1017.1
20260906125016 53 0.0 0.0 0.00 0.00 0.00 92 1017.1
20260906124016 54 294 0.0 1.0 0.00 0.00 0.00 91 1017.2
20260906123036 54 0.0 0.0 0.00 0.00 0.00 90 1017.2
20260906122016 54 248 0.0 0.0 0.00 0.00 0.00 90 1017.2
20260906121016 54 245 1.0 2.0 0.00 0.00 0.00 90 1017.2
20260906120017 54 0.0 0.0 0.00 0.00 0.00 89 1017.2
20260906115017 54 0.0 0.0 0.00 0.00 0.00 88 1017.2
20260906114038 54 0.0 0.0 0.00 0.00 0.00 87 1017.1
20260906113017 54 280 0.0 1.0 0.00 0.00 0.00 87 1017.1
20260906112018 55 236 1.0 2.0 0.00 0.00 0.00 86 1017.1
20260906111038 55 246 1.0 2.0 0.00 0.00 0.00 85 1017.1
20260906110018 55 249 1.0 2.0 0.00 0.00 0.00 85 1017.1
20260906105018 55 238 1.0 2.0 0.00 0.00 0.00 87 1017.0
20260906104018 54 285 1.0 1.0 0.00 0.00 0.00 88 1017.1
20260906103018 54 247 0.0 2.0 0.00 0.00 0.00 88 1017.0
20260906102018 54 0.0 0.0 0.00 0.00 0.00 88 1017.1
20260906101019 55 243 0.0 1.0 0.00 0.00 0.00 87 1017.2
20260906100019 55 245 1.0 2.0 0.00 0.00 0.00 86 1017.1
20260906095019 56 0.0 0.0 0.00 0.00 0.00 85 1017.1
20260906094020 56 261 2.0 2.0 0.00 0.00 0.00 85 1017.1
20260906093020 55 265 1.0 2.0 0.00 0.00 0.00 86 1017.2
20260906092020 56 0.0 0.0 0.00 0.00 0.00 86 1017.3
20260906091020 56 0.0 0.0 0.00 0.00 0.00 85 1017.3
20260906090020 57 0.0 0.0 0.00 0.00 0.00 84 1017.3
20260906085021 57 0.0 0.0 0.00 0.00 0.00 83 1017.3
20260906084020 58 0.0 0.0 0.00 0.00 0.00 81 1017.4
20260906083021 58 292 1.0 2.0 0.00 0.00 0.00 80 1017.5
20260906082021 59 336 1.0 3.0 0.00 0.00 0.00 79 1017.5
20260906081021 59 324 1.0 3.0 0.00 0.00 0.00 79 1017.5
20260906080021 59 315 1.0 3.0 0.00 0.00 0.00 80 1017.5
20260906075021 59 318 2.0 2.0 0.00 0.00 0.00 79 1017.5
20260906074022 59 319 2.0 3.0 0.00 0.00 0.00 78 1017.5
20260906073022 60 327 0.0 2.0 0.00 0.00 0.00 78 1017.5
20260906072022 60 323 1.0 3.0 0.00 0.00 0.00 78 1017.6
20260906071023 60 318 2.0 3.0 0.00 0.00 0.00 78 1017.7
20260906070023 59 337 2.0 4.0 0.00 0.00 0.00 78 1017.8
20260906065024 59 317 1.0 2.0 0.00 0.00 0.00 79 1017.8
20260906064023 58 332 2.0 5.0 0.00 0.00 0.00 80 1017.8
20260906063024 58 322 2.0 3.0 0.00 0.00 0.00 81 1017.8
20260906062024 58 318 2.0 3.0 0.00 0.00 0.00 82 1017.7
20260906061024 58 287 0.0 1.0 0.00 0.00 0.00 81 1017.7
20260906060024 59 0.0 0.0 0.00 0.00 0.00 80 1017.5
20260906055024 60 285 1.0 2.0 0.00 0.00 0.00 78 1017.4
20260906054024 61 0.0 0.0 0.00 0.00 0.00 76 1017.4
20260906053024 61 277 0.0 1.0 0.00 0.00 0.00 74 1017.4
20260906052016 62 279 1.0 2.0 0.00 0.00 0.00 74 1017.5
20260906051017 62 314 2.0 4.0 0.00 0.00 0.00 73 1017.6
20260906050017 62 316 0.0 2.0 0.00 0.00 0.00 74 1017.7
20260906045016 62 323 2.0 4.0 0.00 0.00 0.00 73 1017.7
20260906044017 62 294 0.0 2.0 0.00 0.00 0.00 70 1017.8
20260906043017 62 304 1.0 3.0 0.00 0.00 0.00 67 1017.8
20260906042018 62 299 1.0 2.0 0.00 0.00 0.00 69 1017.8
20260906041018 62 300 0.0 1.0 0.00 0.00 0.00 66 1017.8
20260906040017 63 0.0 0.0 0.00 0.00 0.00 64 1017.7
20260906035018 63 273 1.0 3.0 0.00 0.00 0.00 63 1017.7
20260906034018 63 279 1.0 3.0 0.00 0.00 0.00 65 1017.7
20260906033038 63 295 0.0 1.0 0.00 0.00 0.00 63 1017.6
20260906032018 64 0.0 0.0 0.00 0.00 0.00 62 1017.4
20260906031018 65 300 0.0 1.0 0.00 0.00 0.00 59 1017.3
20260906030018 66 0.0 0.0 0.00 0.00 0.00 56 1017.3
20260906025019 66 207 1.0 5.0 0.00 0.00 0.00 54 1017.2
20260906024016 67 205 1.0 3.0 0.00 0.00 0.00 54 1017.2
20260906023017 67 200 2.0 4.0 0.00 0.00 0.00 54 1017.3
20260906022036 68 200 3.0 6.0 0.00 0.00 0.00 52 1017.2
20260906021016 68 208 3.0 6.0 0.00 0.00 0.00 52 1017.2
20260906020016 69 203 4.0 6.0 0.00 0.00 0.00 50 1017.2
20260906015017 69 204 3.0 5.0 0.00 0.00 0.00 51 1017.1
20260906014018 69 195 3.0 7.0 0.00 0.00 0.00 51 1016.9
20260906013017 70 190 4.0 7.0 0.00 0.00 0.00 52 1016.8
20260906012017 70 201 3.0 6.0 0.00 0.00 0.00 51 1016.6
20260906011018 71 199 5.0 9.0 0.00 0.00 0.00 49 1016.6
20260906010018 72 192 6.0 9.0 0.00 0.00 0.00 48 1016.4
20260906005017 72 183 5.0 9.0 0.00 0.00 0.00 47 1016.4
20260906004018 73 187 4.0 7.0 0.00 0.00 0.00 46 1016.4
20260906003018 73 189 5.0 9.0 0.00 0.00 0.00 46 1016.4
20260906002019 73 192 4.0 8.0 0.00 0.00 0.00 46 1016.4
20260906001016 73 183 5.0 9.0 0.00 0.00 0.00 46 1016.4
20260906000036 72 189 4.0 8.0 0.00 0.00 0.00 46 1016.4
20260905235016 73 178 4.0 8.0 0.00 0.00 0.00 46 1016.5
20260905234016 73 191 4.0 8.0 0.00 0.00 0.00 47 1016.6
20260905233016 73 189 4.0 10.0 0.00 0.00 0.00 47 1016.6
20260905232016 73 183 3.0 7.0 0.00 0.00 0.00 48 1016.6
20260905231017 73 175 3.0 8.0 0.00 0.00 0.00 49 1016.6
20260905230017 72 192 4.0 7.0 0.00 0.00 0.00 50 1016.7